Location: Dreilärchen
(47.9312°N, 8.6113°E)
Time: 21:20:44
(UTC+00:00)

ADEOS Rocket - Pass Details

Date: 26 May 2022
Orbit: 859 x 1305 km, 98.8° (Epoch: 04 July)

Event Time Altitude Azimuth Distance (km) Brightness Sun altitude
Exits shadow 00:42:15 16° 251° (WSW) 2,154 4.5 -18.7°
Maximum altitude 00:43:59 18° 273° (W) 2,059 4.5 -18.6°
Drops below altitude 10° 00:47:57 10° 316° (NW) 2,670 5.6 -18.4°
Sets 00:51:21 0° 334° (NNW) 3,696 6.7 -18.2°
